| time (UTC) | temp C | wind direction | speed KPH | gust KPH | rain 1hr cm | rain 24hr cm | rain mn cm | humidity % | barometer mb |
| 20260505114305 | 14 | 214 | 4.8 | 6.4 | 0.00 | 0.03 | 0.03 | 83 | 1003.6 |
| 20260505113757 | 14 | 170 | 6.4 | 6.4 | 0.00 | 0.03 | 0.03 | 83 | 1003.3 |
| 20260505113253 | 14 | 171 | 6.4 | 9.7 | 0.00 | 0.03 | 0.03 | 83 | 1003.4 |
| 20260505112749 | 14 | 213 | 8.0 | 9.7 | 0.00 | 0.03 | 0.03 | 83 | 1002.9 |
| 20260505112246 | 14 | 197 | 8.0 | 9.7 | 0.00 | 0.03 | 0.03 | 83 | 1002.9 |
| 20260505111741 | 14 | 204 | 8.0 | 9.7 | 0.00 | 0.03 | 0.03 | 83 | 1002.6 |
| 20260505111237 | 14 | 201 | 11.3 | 12.9 | 0.00 | 0.03 | 0.03 | 83 | 1002.3 |
| 20260505110733 | 14 | 190 | 11.3 | 12.9 | 0.00 | 0.03 | 0.03 | 83 | 1002.2 |
| 20260505110231 | 14 | 186 | 8.0 | 9.7 | 0.00 | 0.03 | 0.03 | 82 | 1002.5 |
| 20260505102207 | 14 | 221 | 6.4 | 9.7 | 0.00 | 0.03 | 0.03 | 81 | 1003.3 |
| 20260505101705 | 14 | 233 | 11.3 | 12.9 | 0.00 | 0.03 | 0.03 | 82 | 1003.4 |
| 20260505101201 | 14 | 216 | 6.4 | 6.4 | 0.00 | 0.03 | 0.03 | 82 | 1003.3 |
| 20260505100657 | 15 | 223 | 6.4 | 6.4 | 0.00 | 0.03 | 0.03 | 82 | 1003.6 |
| 20260505100154 | 15 | 254 | 16.1 | 17.7 | 0.00 | 0.03 | 0.03 | 79 | 1003.8 |
| 20260505095650 | 15 | 258 | 16.1 | 20.9 | 0.00 | 0.03 | 0.03 | 78 | 1003.7 |
| 20260505095148 | 15 | 254 | 17.7 | 24.1 | 0.00 | 0.03 | 0.03 | 77 | 1003.7 |
| 20260505094643 | 15 | 258 | 11.3 | 12.9 | 0.00 | 0.03 | 0.03 | 77 | 1003.7 |
| 20260505094140 | 15 | 235 | 14.5 | 14.5 | 0.00 | 0.03 | 0.03 | 77 | 1003.5 |
| 20260505093636 | 15 | 211 | 12.9 | 14.5 | 0.00 | 0.03 | 0.03 | 77 | 1003.7 |
| 20260505093134 | 16 | 260 | 14.5 | 17.7 | 0.00 | 0.03 | 0.03 | 77 | 1003.4 |
| 20260505092631 | 16 | 301 | 12.9 | 22.5 | 0.00 | 0.03 | 0.03 | 77 | 1003.4 |
| 20260505092130 | 16 | 263 | 9.7 | 12.9 | 0.00 | 0.03 | 0.03 | 77 | 1003.5 |
| 20260505091626 | 16 | 261 | 17.7 | 22.5 | 0.00 | 0.03 | 0.03 | 76 | 1003.6 |
| 20260505091124 | 16 | 238 | 8.0 | 11.3 | 0.00 | 0.03 | 0.03 | 76 | 1003.4 |
| 20260505090621 | 16 | 241 | 9.7 | 12.9 | 0.00 | 0.03 | 0.03 | 76 | 1003.6 |
| 20260505090119 | 16 | 228 | 11.3 | 12.9 | 0.00 | 0.03 | 0.03 | 75 | 1003.6 |
| 20260505085617 | 16 | 243 | 8.0 | 9.7 | 0.00 | 0.03 | 0.03 | 75 | 1003.7 |
| 20260505085115 | 16 | 261 | 9.7 | 11.3 | 0.00 | 0.03 | 0.03 | 75 | 1003.5 |
| 20260505084612 | 16 | 252 | 14.5 | 16.1 | 0.00 | 0.03 | 0.03 | 74 | 1003.5 |
| 20260505084111 | 16 | 244 | 14.5 | 17.7 | 0.00 | 0.03 | 0.03 | 74 | 1003.7 |
| 20260505083608 | 17 | 245 | 16.1 | 24.1 | 0.00 | 0.03 | 0.03 | 73 | 1003.4 |
| 20260505083104 | 17 | 265 | 14.5 | 16.1 | 0.00 | 0.03 | 0.03 | 73 | 1002.9 |
| 20260505082600 | 17 | 262 | 11.3 | 14.5 | 0.00 | 0.03 | 0.03 | 73 | 1003.1 |
| 20260505082057 | 17 | 264 | 14.5 | 20.9 | 0.00 | 0.03 | 0.03 | 72 | 1002.9 |
| 20260505081553 | 17 | 258 | 19.3 | 20.9 | 0.00 | 0.03 | 0.03 | 71 | 1002.9 |
| 20260505081050 | 17 | 260 | 19.3 | 24.1 | 0.00 | 0.03 | 0.03 | 72 | 1002.8 |
| 20260505080546 | 17 | 247 | 20.9 | 25.7 | 0.00 | 0.03 | 0.03 | 72 | 1002.8 |
| 20260505080044 | 17 | 273 | 11.3 | 14.5 | 0.00 | 0.03 | 0.03 | 73 | 1002.5 |
| 20260505075539 | 17 | 221 | 20.9 | 29.0 | 0.00 | 0.03 | 0.03 | 72 | 1002.4 |
| 20260505075036 | 17 | 237 | 11.3 | 14.5 | 0.00 | 0.03 | 0.03 | 73 | 1002.5 |
| 20260505074533 | 17 | 205 | 20.9 | 30.6 | 0.00 | 0.03 | 0.03 | 73 | 1002.6 |
| 20260505074030 | 17 | 282 | 19.3 | 25.7 | 0.13 | 0.03 | 0.03 | 73 | 1002.6 |
| 20260505073528 | 17 | 234 | 12.9 | 16.1 | 0.13 | 0.03 | 0.03 | 77 | 1002.5 |
| 20260505073026 | 17 | 264 | 16.1 | 20.9 | 0.00 | 0.00 | 0.00 | 75 | 1002.5 |
| 20260505072521 | 17 | 201 | 16.1 | 17.7 | 0.00 | 0.00 | 0.00 | 71 | 1002.5 |
| 20260505072018 | 17 | 222 | 19.3 | 22.5 | 0.00 | 0.00 | 0.00 | 71 | 1002.1 |
| 20260505071513 | 17 | 223 | 16.1 | 20.9 | 0.00 | 0.00 | 0.00 | 73 | 1002.2 |
| 20260505071012 | 18 | 235 | 20.9 | 25.7 | 0.00 | 0.00 | 0.00 | 70 | 1002.3 |
| 20260505070509 | 18 | 248 | 16.1 | 17.7 | 0.00 | 0.00 | 0.00 | 68 | 1002.0 |
| 20260505070005 | 18 | 207 | 6.4 | 9.7 | 0.00 | 0.00 | 0.00 | 68 | 1001.9 |
| 20260505065501 | 18 | 241 | 11.3 | 17.7 | 0.00 | 0.00 | 0.00 | 68 | 1001.8 |
| 20260505064957 | 18 | 189 | 8.0 | 12.9 | 0.00 | 0.00 | 0.00 | 67 | 1001.9 |
| 20260505064454 | 18 | 256 | 8.0 | 12.9 | 0.00 | 0.00 | 0.00 | 66 | 1001.9 |
| 20260505063953 | 18 | 258 | 12.9 | 17.7 | 0.00 | 0.00 | 0.00 | 66 | 1002.0 |
| 20260505063449 | 18 | 210 | 9.7 | 11.3 | 0.00 | 0.00 | 0.00 | 66 | 1002.0 |
| 20260505062945 | 18 | 224 | 17.7 | 20.9 | 0.00 | 0.00 | 0.00 | 66 | 1001.8 |
| 20260505062443 | 18 | 218 | 11.3 | 14.5 | 0.00 | 0.00 | 0.00 | 66 | 1001.8 |
| 20260505061939 | 18 | 237 | 14.5 | 17.7 | 0.00 | 0.00 | 0.00 | 66 | 1001.8 |
| 20260505061438 | 18 | 213 | 11.3 | 12.9 | 0.00 | 0.00 | 0.00 | 66 | 1001.7 |
| 20260505060935 | 19 | 211 | 12.9 | 14.5 | 0.00 | 0.00 | 0.00 | 65 | 1001.9 |
| 20260505060432 | 19 | 195 | 9.7 | 11.3 | 0.00 | 0.00 | 0.00 | 65 | 1001.8 |
| 20260505055928 | 18 | 199 | 9.7 | 11.3 | 0.00 | 0.00 | 0.00 | 66 | 1001.6 |
| 20260505055424 | 18 | 236 | 16.1 | 20.9 | 0.00 | 0.00 | 0.00 | 66 | 1001.9 |
| 20260505054921 | 18 | 218 | 17.7 | 20.9 | 0.00 | 0.00 | 0.00 | 66 | 1001.7 |
| 20260505054418 | 18 | 215 | 12.9 | 14.5 | 0.00 | 0.00 | 0.00 | 66 | 1002.0 |
| 20260505053916 | 18 | 198 | 6.4 | 9.7 | 0.00 | 0.00 | 0.00 | 66 | 1002.1 |
| 20260505053413 | 19 | 233 | 9.7 | 12.9 | 0.00 | 0.00 | 0.00 | 66 | 1001.9 |
| 20260505052910 | 19 | 211 | 9.7 | 12.9 | 0.00 | 0.00 | 0.00 | 66 | 1001.9 |
| 20260505052407 | 19 | 257 | 9.7 | 12.9 | 0.00 | 0.00 | 0.00 | 66 | 1002.1 |
| 20260505051904 | 19 | 234 | 14.5 | 16.1 | 0.00 | 0.00 | 0.00 | 65 | 1002.2 |
| 20260505051401 | 19 | 186 | 9.7 | 11.3 | 0.00 | 0.00 | 0.00 | 66 | 1002.1 |
| 20260505050859 | 19 | 218 | 8.0 | 9.7 | 0.00 | 0.00 | 0.00 | 66 | 1002.2 |
| 20260505050357 | 19 | 208 | 9.7 | 12.9 | 0.00 | 0.00 | 0.00 | 65 | 1002.1 |
| 20260505041325 | 19 | 235 | 9.7 | 12.9 | 0.00 | 0.00 | 0.00 | 66 | 1002.6 |
| 20260505040822 | 19 | 202 | 12.9 | 14.5 | 0.00 | 0.00 | 0.00 | 66 | 1002.5 |
| 20260505040320 | 19 | 196 | 9.7 | 14.5 | 0.00 | 0.00 | 0.00 | 65 | 1002.6 |
| 20260505035816 | 19 | 256 | 6.4 | 9.7 | 0.00 | 0.00 | 0.00 | 65 | 1002.5 |
| 20260505035311 | 19 | 216 | 9.7 | 12.9 | 0.00 | 0.00 | 0.00 | 65 | 1002.4 |
| 20260505034809 | 19 | 215 | 9.7 | 11.3 | 0.00 | 0.00 | 0.00 | 66 | 1002.6 |
| 20260505034306 | 19 | 196 | 6.4 | 11.3 | 0.00 | 0.00 | 0.00 | 66 | 1002.7 |
| 20260505033803 | 19 | 218 | 6.4 | 6.4 | 0.00 | 0.00 | 0.00 | 66 | 1002.6 |
| 20260505033300 | 19 | 200 | 8.0 | 11.3 | 0.00 | 0.00 | 0.00 | 65 | 1002.8 |
| 20260505032758 | 19 | 212 | 9.7 | 12.9 | 0.00 | 0.00 | 0.00 | 66 | 1002.6 |
| 20260505032254 | 19 | 186 | 4.8 | 6.4 | 0.00 | 0.00 | 0.00 | 66 | 1002.5 |
| 20260505031751 | 19 | 244 | 11.3 | 12.9 | 0.00 | 0.00 | 0.00 | 66 | 1002.7 |
| 20260505031247 | 19 | 230 | 6.4 | 9.7 | 0.00 | 0.00 | 0.00 | 66 | 1002.5 |
| 20260505030744 | 19 | 225 | 6.4 | 11.3 | 0.00 | 0.00 | 0.00 | 66 | 1002.6 |
| 20260505030241 | 19 | 201 | 8.0 | 11.3 | 0.00 | 0.00 | 0.00 | 66 | 1002.5 |
| 20260505025736 | 19 | 207 | 4.8 | 6.4 | 0.00 | 0.00 | 0.00 | 67 | 1002.5 |
| 20260505025235 | 19 | 205 | 6.4 | 12.9 | 0.00 | 0.00 | 0.00 | 67 | 1002.4 |
| 20260505024733 | 19 | 192 | 4.8 | 4.8 | 0.00 | 0.00 | 0.00 | 67 | 1002.5 |
| 20260505024229 | 18 | 206 | 4.8 | 6.4 | 0.00 | 0.00 | 0.00 | 67 | 1002.4 |
| 20260505023727 | 18 | 189 | 4.8 | 4.8 | 0.00 | 0.00 | 0.00 | 67 | 1002.3 |
| 20260505023224 | 18 | 181 | 3.2 | 4.8 | 0.00 | 0.00 | 0.00 | 68 | 1002.5 |
| 20260505022721 | 18 | 186 | 3.2 | 4.8 | 0.00 | 0.00 | 0.00 | 68 | 1002.4 |
| 20260505022218 | 18 | 181 | 4.8 | 4.8 | 0.00 | 0.00 | 0.00 | 68 | 1002.6 |
| 20260505021715 | 18 | 174 | 1.6 | 3.2 | 0.00 | 0.00 | 0.00 | 68 | 1002.5 |
| 20260505021212 | 19 | 170 | 3.2 | 3.2 | 0.00 | 0.00 | 0.00 | 67 | 1002.6 |
| 20260505020707 | 19 | 185 | 3.2 | 3.2 | 0.00 | 0.00 | 0.00 | 67 | 1002.5 |
| 20260505020203 | 19 | 180 | 3.2 | 4.8 | 0.00 | 0.00 | 0.00 | 67 | 1002.6 |
| 20260505015701 | 19 | 182 | 4.8 | 4.8 | 0.00 | 0.00 | 0.00 | 67 | 1002.5 |
| 20260505015157 | 19 | 185 | 3.2 | 3.2 | 0.00 | 0.00 | 0.00 | 67 | 1002.5 |
| 20260505014654 | 19 | 185 | 3.2 | 3.2 | 0.00 | 0.00 | 0.00 | 66 | 1002.5 |
| 20260505014151 | 19 | 183 | 1.6 | 3.2 | 0.00 | 0.00 | 0.00 | 66 | 1002.6 |
| 20260505013648 | 19 | 191 | 3.2 | 4.8 | 0.00 | 0.00 | 0.00 | 66 | 1002.4 |
| 20260505013145 | 19 | 199 | 3.2 | 4.8 | 0.00 | 0.00 | 0.00 | 65 | 1002.5 |
| 20260505012644 | 19 | 185 | 3.2 | 3.2 | 0.00 | 0.00 | 0.00 | 66 | 1002.4 |
| 20260505012140 | 19 | 172 | 3.2 | 3.2 | 0.00 | 0.00 | 0.00 | 65 | 1002.2 |
| 20260505011636 | 19 | 178 | 3.2 | 3.2 | 0.00 | 0.00 | 0.00 | 65 | 1002.2 |
| 20260505011133 | 19 | 185 | 3.2 | 3.2 | 0.00 | 0.00 | 0.00 | 65 | 1002.3 |
| 20260505010628 | 19 | 186 | 3.2 | 4.8 | 0.00 | 0.00 | 0.00 | 65 | 1002.1 |
| 20260505010125 | 19 | 187 | 3.2 | 3.2 | 0.00 | 0.00 | 0.00 | 66 | 1002.2 |
| 20260505005621 | 19 | 196 | 3.2 | 3.2 | 0.00 | 0.00 | 0.00 | 66 | 1002.2 |
| 20260505005118 | 19 | 188 | 3.2 | 3.2 | 0.00 | 0.00 | 0.00 | 66 | 1002.4 |
| 20260505004615 | 19 | 214 | 4.8 | 4.8 | 0.00 | 0.00 | 0.00 | 66 | 1002.2 |
| 20260505004112 | 19 | 187 | 1.6 | 1.6 | 0.00 | 0.00 | 0.00 | 65 | 1002.2 |
| 20260505003609 | 20 | 231 | 6.4 | 9.7 | 0.00 | 0.00 | 0.00 | 64 | 1002.5 |
| 20260505003107 | 20 | 201 | 4.8 | 4.8 | 0.00 | 0.00 | 0.00 | 64 | 1002.3 |
| 20260505002602 | 20 | 230 | 8.0 | 11.3 | 0.00 | 0.00 | 0.00 | 63 | 1002.4 |
| 20260505002101 | 20 | 248 | 11.3 | 12.9 | 0.00 | 0.00 | 0.00 | 62 | 1002.4 |
| 20260505001558 | 20 | 203 | 11.3 | 12.9 | 0.00 | 0.00 | 0.00 | 62 | 1002.1 |
| 20260505001055 | 20 | 213 | 6.4 | 11.3 | 0.00 | 0.00 | 0.00 | 61 | 1002.2 |
| 20260505000552 | 20 | 227 | 11.3 | 12.9 | 0.00 | 0.00 | 0.00 | 61 | 1002.3 |
| 20260505000050 | 20 | 221 | 14.5 | 16.1 | 0.00 | 0.00 | 0.00 | 60 | 1002.3 |
| 20260504235546 | 20 | 236 | 3.2 | 4.8 | 0.00 | 0.00 | 0.00 | 60 | 1002.3 |
| 20260504235043 | 20 | 214 | 9.7 | 11.3 | 0.00 | 0.00 | 0.00 | 59 | 1002.4 |
| 20260504234540 | 20 | 221 | 11.3 | 14.5 | 0.00 | 0.00 | 0.00 | 59 | 1002.4 |
| 20260504234037 | 20 | 226 | 14.5 | 16.1 | 0.00 | 0.00 | 0.00 | 59 | 1002.2 |
| 20260504233532 | 20 | 265 | 20.9 | 29.0 | 0.00 | 0.00 | 0.00 | 59 | 1002.3 |
| 20260504233029 | 20 | 215 | 9.7 | 12.9 | 0.00 | 0.00 | 0.00 | 60 | 1002.3 |
| 20260504232526 | 21 | 258 | 22.5 | 27.4 | 0.00 | 0.00 | 0.00 | 59 | 1002.4 |
| 20260504232024 | 21 | 254 | 11.3 | 14.5 | 0.00 | 0.00 | 0.00 | 59 | 1002.1 |
| 20260504231521 | 21 | 212 | 11.3 | 17.7 | 0.00 | 0.00 | 0.00 | 57 | 1002.2 |
| 20260504231017 | 22 | 218 | 22.5 | 25.7 | 0.00 | 0.00 | 0.00 | 55 | 1002.1 |
| 20260504230513 | 22 | 220 | 12.9 | 16.1 | 0.00 | 0.00 | 0.00 | 54 | 1002.2 |
| 20260504230013 | 22 | 204 | 14.5 | 16.1 | 0.00 | 0.00 | 0.00 | 54 | 1002.0 |
| 20260504225509 | 22 | 205 | 12.9 | 16.1 | 0.00 | 0.00 | 0.00 | 52 | 1001.9 |
| 20260504225006 | 22 | 230 | 14.5 | 16.1 | 0.00 | 0.00 | 0.00 | 53 | 1002.1 |
| 20260504224502 | 22 | 231 | 11.3 | 14.5 | 0.00 | 0.00 | 0.00 | 53 | 1002.0 |
| 20260504223959 | 22 | 215 | 9.7 | 12.9 | 0.00 | 0.00 | 0.00 | 52 | 1002.2 |
| 20260504223456 | 22 | 268 | 24.1 | 33.8 | 0.00 | 0.00 | 0.00 | 51 | 1002.1 |
| 20260504222951 | 22 | 217 | 12.9 | 14.5 | 0.00 | 0.00 | 0.00 | 52 | 1002.1 |
| 20260504222449 | 22 | 251 | 24.1 | 27.4 | 0.00 | 0.00 | 0.00 | 52 | 1002.1 |
| 20260504221946 | 23 | 229 | 11.3 | 12.9 | 0.00 | 0.00 | 0.00 | 52 | 1002.2 |
| 20260504221444 | 22 | 238 | 16.1 | 20.9 | 0.00 | 0.00 | 0.00 | 51 | 1002.1 |
| 20260504220941 | 22 | 263 | 14.5 | 20.9 | 0.00 | 0.00 | 0.00 | 52 | 1002.2 |
| 20260504220437 | 22 | 254 | 20.9 | 25.7 | 0.00 | 0.00 | 0.00 | 52 | 1002.2 |
| 20260504215934 | 22 | 292 | 17.7 | 25.7 | 0.00 | 0.00 | 0.00 | 51 | 1002.3 |
| 20260504215431 | 23 | 280 | 22.5 | 35.4 | 0.00 | 0.00 | 0.00 | 51 | 1002.4 |
| 20260504214927 | 22 | 255 | 24.1 | 27.4 | 0.00 | 0.00 | 0.00 | 51 | 1002.1 |
| 20260504214424 | 22 | 258 | 22.5 | 38.6 | 0.00 | 0.00 | 0.00 | 51 | 1002.4 |
| 20260504213920 | 22 | 245 | 17.7 | 22.5 | 0.00 | 0.00 | 0.00 | 52 | 1002.2 |
| 20260504213416 | 22 | 267 | 19.3 | 20.9 | 0.00 | 0.00 | 0.00 | 52 | 1002.3 |
| 20260504212914 | 22 | 247 | 12.9 | 16.1 | 0.00 | 0.00 | 0.00 | 53 | 1002.2 |
| 20260504212409 | 23 | 226 | 14.5 | 14.5 | 0.00 | 0.00 | 0.00 | 53 | 1002.1 |
| 20260504211908 | 22 | 244 | 20.9 | 27.4 | 0.00 | 0.00 | 0.00 | 53 | 1002.3 |
| 20260504211404 | 22 | 233 | 17.7 | 20.9 | 0.00 | 0.00 | 0.00 | 54 | 1002.5 |
| 20260504210901 | 22 | 257 | 25.7 | 30.6 | 0.00 | 0.00 | 0.00 | 54 | 1002.6 |
| 20260504210358 | 22 | 214 | 14.5 | 17.7 | 0.00 | 0.00 | 0.00 | 55 | 1002.5 |
| 20260504205855 | 22 | 231 | 12.9 | 17.7 | 0.00 | 0.00 | 0.00 | 55 | 1002.7 |
| 20260504205353 | 22 | 232 | 14.5 | 17.7 | 0.00 | 0.00 | 0.00 | 55 | 1002.6 |
| 20260504204851 | 22 | 233 | 17.7 | 20.9 | 0.00 | 0.00 | 0.00 | 56 | 1002.7 |
| 20260504204349 | 22 | 228 | 24.1 | 30.6 | 0.00 | 0.00 | 0.00 | 55 | 1002.7 |
| 20260504203848 | 22 | 231 | 19.3 | 25.7 | 0.00 | 0.00 | 0.00 | 54 | 1002.8 |
| 20260504203344 | 23 | 198 | 14.5 | 22.5 | 0.00 | 0.00 | 0.00 | 55 | 1002.8 |
| 20260504202840 | 22 | 198 | 16.1 | 27.4 | 0.00 | 0.00 | 0.00 | 55 | 1002.3 |
| 20260504202338 | 22 | 235 | 19.3 | 24.1 | 0.00 | 0.00 | 0.00 | 56 | 1002.4 |
| 20260504201834 | 22 | 235 | 33.8 | 41.8 | 0.00 | 0.00 | 0.00 | 54 | 1002.7 |
| 20260504201332 | 22 | 245 | 29.0 | 35.4 | 0.00 | 0.00 | 0.00 | 56 | 1002.8 |
| 20260504200829 | 23 | 216 | 11.3 | 12.9 | 0.00 | 0.00 | 0.00 | 55 | 1002.9 |
| 20260504200325 | 22 | 226 | 20.9 | 27.4 | 0.00 | 0.00 | 0.00 | 55 | 1003.1 |
| 20260504195821 | 22 | 215 | 9.7 | 12.9 | 0.00 | 0.00 | 0.00 | 56 | 1003.1 |
| 20260504195317 | 22 | 224 | 20.9 | 27.4 | 0.00 | 0.00 | 0.00 | 56 | 1003.0 |
| 20260504194814 | 22 | 222 | 20.9 | 24.1 | 0.00 | 0.00 | 0.00 | 56 | 1003.1 |
| 20260504194310 | 22 | 226 | 12.9 | 12.9 | 0.00 | 0.00 | 0.00 | 56 | 1002.9 |
| 20260504193807 | 23 | 201 | 17.7 | 22.5 | 0.00 | 0.00 | 0.00 | 55 | 1003.1 |
| 20260504193304 | 23 | 227 | 22.5 | 29.0 | 0.00 | 0.00 | 0.00 | 54 | 1003.2 |
| 20260504192803 | 23 | 226 | 14.5 | 14.5 | 0.00 | 0.00 | 0.00 | 54 | 1003.0 |
| 20260504192300 | 22 | 217 | 9.7 | 11.3 | 0.00 | 0.00 | 0.00 | 56 | 1003.2 |
| 20260504191759 | 22 | 225 | 14.5 | 17.7 | 0.00 | 0.00 | 0.00 | 55 | 1003.2 |
| 20260504191255 | 22 | 238 | 17.7 | 20.9 | 0.00 | 0.00 | 0.00 | 55 | 1003.3 |
| 20260504190751 | 22 | 219 | 20.9 | 24.1 | 0.00 | 0.00 | 0.00 | 56 | 1003.2 |
| 20260504190248 | 22 | 313 | 9.7 | 12.9 | 0.00 | 0.00 | 0.00 | 57 | 1003.3 |
| 20260504185744 | 22 | 218 | 17.7 | 17.7 | 0.00 | 0.00 | 0.00 | 56 | 1003.1 |
| 20260504185241 | 23 | 239 | 17.7 | 20.9 | 0.00 | 0.00 | 0.00 | 55 | 1003.3 |
| 20260504184737 | 22 | 242 | 11.3 | 17.7 | 0.00 | 0.00 | 0.00 | 56 | 1003.3 |
| 20260504184233 | 22 | 207 | 14.5 | 16.1 | 0.00 | 0.00 | 0.00 | 56 | 1003.4 |
| 20260504183729 | 22 | 291 | 16.1 | 17.7 | 0.00 | 0.00 | 0.00 | 56 | 1003.6 |
| 20260504183226 | 22 | 235 | 16.1 | 24.1 | 0.00 | 0.00 | 0.00 | 56 | 1003.5 |
| 20260504182724 | 21 | 255 | 11.3 | 12.9 | 0.00 | 0.00 | 0.00 | 57 | 1003.7 |
| 20260504182221 | 21 | 250 | 16.1 | 22.5 | 0.00 | 0.00 | 0.00 | 57 | 1003.8 |
| 20260504181719 | 21 | 229 | 6.4 | 6.4 | 0.00 | 0.00 | 0.00 | 58 | 1003.7 |
| 20260504181216 | 22 | 227 | 16.1 | 17.7 | 0.00 | 0.00 | 0.00 | 57 | 1003.8 |
| 20260504180715 | 21 | 220 | 4.8 | 6.4 | 0.00 | 0.00 | 0.00 | 59 | 1003.9 |
| 20260504180213 | 21 | 227 | 9.7 | 14.5 | 0.00 | 0.00 | 0.00 | 59 | 1004.3 |
| 20260504175710 | 21 | 204 | 6.4 | 6.4 | 0.00 | 0.00 | 0.00 | 58 | 1003.9 |
| 20260504175207 | 21 | 262 | 19.3 | 22.5 | 0.00 | 0.00 | 0.00 | 58 | 1004.3 |
| 20260504174705 | 21 | 229 | 17.7 | 20.9 | 0.00 | 0.00 | 0.00 | 59 | 1004.2 |
| 20260504174203 | 21 | 190 | 6.4 | 9.7 | 0.00 | 0.00 | 0.00 | 60 | 1004.2 |
| 20260504173659 | 20 | 205 | 6.4 | 6.4 | 0.00 | 0.00 | 0.00 | 59 | 1004.2 |
| 20260504173156 | 20 | 198 | 6.4 | 9.7 | 0.00 | 0.00 | 0.00 | 61 | 1004.2 |
| 20260504172652 | 20 | 230 | 12.9 | 14.5 | 0.00 | 0.00 | 0.00 | 58 | 1004.3 |
| 20260504172149 | 20 | 222 | 12.9 | 16.1 | 0.00 | 0.00 | 0.00 | 60 | 1004.4 |
| 20260504171645 | 20 | 219 | 4.8 | 6.4 | 0.00 | 0.00 | 0.00 | 60 | 1004.5 |
| 20260504171143 | 20 | 225 | 9.7 | 12.9 | 0.00 | 0.00 | 0.00 | 60 | 1004.5 |
| 20260504170639 | 20 | 191 | 3.2 | 3.2 | 0.00 | 0.00 | 0.00 | 61 | 1004.6 |
| 20260504170137 | 20 | 213 | 9.7 | 11.3 | 0.00 | 0.00 | 0.00 | 60 | 1004.5 |
| 20260504151022 | 16 | 197 | 11.3 | 16.1 | 0.00 | 0.00 | 0.00 | 65 | 1005.4 |
| 20260504150520 | 16 | 211 | 11.3 | 12.9 | 0.00 | 0.00 | 0.00 | 65 | 1005.5 |
| 20260504140950 | 14 | 200 | 11.3 | 14.5 | 0.00 | 0.00 | 0.00 | 66 | 1005.8 |
| 20260504140447 | 14 | 236 | 16.1 | 20.9 | 0.00 | 0.00 | 0.00 | 66 | 1006.0 |
| 20260504130411 | 12 | 176 | 6.4 | 9.7 | 0.00 | 0.00 | 0.00 | 69 | 1006.4 |